[[{"header":{"parameterUnit":"m.s-1","parameterCategory":1,"la1":30.2991,"la2":30.254,"lo1":-89.0895,"lo2":-89.0444,"dy":0.0017,"dx":0.0017,"nx":28,"ny":28,"refTime":"2024-06-25T09:00:00:Z","depth":0,"parameterNumber":2,"parameterNumberName":"U-component_of_WINDS"},"data":[0,0,0,0,0,0,0,0,0,0,0,0,0,0,0,0,0,0,0,0,0,0,0,0,0,0,0,0,0,0,0,0,0,0,0,0,0,0,0,0,0,0,0,0,0,0,0,0,0,0,0,0,0,0,0,0,0,0,4.713,4.7132,0,4.7314,4.7316,4.7319,4.7282,4.7279,4.7276,4.7272,4.7466,4.7474,4.7483,0,0,0,0,0,0,0,0,0,0,0,0,0,4.6749,4.6756,4.713,4.7132,4.7134,4.7314,4.7317,4.7319,4.7283,4.7279,4.7275,4.7271,4.7464,4.7473,4.7483,0,0,0,0,0,0,0,0,0,0,0,0,0,4.6922,4.6758,4.7129,4.7138,4.714,4.7313,4.7317,4.732,4.7284,4.7279,4.7274,4.7269,4.746,4.7472,4.7485,4.7662,0,0,4.7523,4.7528,0,0,0,0,0,0,0,0,4.6912,4.6936,4.7134,4.7138,4.7141,4.727,4.7253,4.7435,4.7285,4.723,4.7272,4.7266,4.7405,4.7422,4.7468,4.7672,4.768,4.7524,4.7531,4.7537,4.754,0,0,0,0,0,0,0,4.69,4.6928,4.7203,4.7137,4.7141,4.7133,4.7152,4.7287,4.7344,4.7234,4.7232,4.7254,4.7406,4.7456,4.7472,4.7683,4.7524,4.7535,4.7542,4.7547,4.8039,4.8044,0,0,0,0,0,0,4.6885,4.6918,4.7197,4.7208,4.7011,4.7144,4.7165,4.7234,4.7342,4.7354,4.7258,4.7251,4.7437,4.7458,4.7479,4.7692,4.7537,4.7548,4.7555,4.8033,4.804,4.8046,0,0,0,0,0,0,4.6877,4.691,4.719,4.7063,4.7098,4.7156,4.7233,4.724,4.729,4.736,4.737,4.7298,4.7434,4.7461,4.7616,4.7698,4.7554,4.7565,4.8027,4.8035,4.8043,4.8121,0,0,0,0,0,0,4.6866,4.6907,4.6975,4.7064,4.7105,4.7323,4.7238,4.7247,4.7311,4.7304,4.7401,4.7412,4.7432,4.7598,4.7628,4.7713,4.7575,4.8019,4.803,4.804,4.8112,4.8131,4.8148,0,0,0,0,0,4.6852,4.6991,4.6979,4.7012,4.719,4.7328,4.7351,4.737,4.7317,4.7386,4.7431,4.7409,4.7684,4.7614,4.7648,4.7738,4.8014,4.8027,4.804,4.8104,4.8128,4.8148,0,0,0,0,0,0,4.6913,4.7003,4.699,4.7162,4.7237,4.7322,4.7409,4.7396,4.7489,4.7479,4.75,4.7522,4.7679,4.7724,4.7644,4.7914,4.7842,4.7862,4.7879,4.7902,4.792,4.7906,4.7585,0,0,0,0,0,4.6945,4.7049,4.7123,4.7267,4.7306,4.7351,4.7412,4.7419,4.7499,4.7531,4.7587,4.7667,4.7771,4.7839,4.7939,4.8118,4.8138,4.8196,4.8215,4.8229,4.8246,4.8342,4.8368,4.8087,4.8087,4.8087,0,0,4.7015,4.7078,4.7142,4.7281,4.734,4.7447,4.7378,4.7495,4.7574,4.755,4.7698,4.7742,4.7832,4.7998,4.8075,4.8041,4.8328,4.8245,4.8256,4.8266,4.8358,4.8384,4.8408,4.8096,4.8094,4.8093,0,0,4.7197,4.7255,4.738,4.744,4.7529,4.7558,4.7588,4.7674,4.7702,4.7851,4.7833,4.7929,4.8109,4.8172,4.8228,4.843,4.8413,4.8463,4.8558,4.8651,4.8674,4.8693,4.8764,4.8789,4.8479,4.848,4.848,0,4.7273,4.7432,4.7447,4.7564,4.7625,4.7605,4.7732,4.779,4.7909,4.7952,4.7911,4.8134,4.8194,4.8374,4.8423,4.8469,4.8504,4.8452,4.8669,4.8689,4.8707,4.8775,4.8802,4.8485,4.8484,4.8484,4.8483,0,4.752,4.763,4.7721,4.7833,4.7904,4.8026,4.806,4.8131,4.8132,4.8165,4.8316,4.8386,4.8498,4.8542,4.8545,4.8722,4.8698,4.8663,4.8591,4.8739,4.8803,4.8829,4.8493,4.8491,4.8489,4.8488,0,0,4.7746,4.7862,4.7895,4.7944,4.8041,4.8127,4.8247,4.8355,4.8414,4.8497,4.8598,4.8748,4.8716,4.8779,4.879,4.8871,4.9025,4.8826,4.8829,4.886,4.9222,4.9247,4.9277,4.9014,4.9019,4.9023,4.9214,0,4.7935,4.8146,4.8162,4.8352,4.8453,4.8434,4.8539,4.861,4.8643,4.8735,4.8772,4.8878,4.8828,4.8865,4.8946,4.8989,4.9098,4.8976,4.9108,4.9113,4.9085,4.9311,4.9338,4.9515,4.9239,4.9244,4.9247,0,4.8185,4.8271,4.847,4.8549,4.8592,4.8686,4.8785,4.8872,4.8952,4.897,4.9039,4.9038,4.9161,4.9084,4.9255,4.9171,4.9226,4.9255,4.9263,4.9276,4.9188,4.9328,4.9573,4.9599,4.9287,4.9284,4.9281,0,4.8327,4.8494,4.8634,4.8677,4.8773,4.8839,4.8883,4.8956,4.9019,4.9106,4.9147,4.9248,4.9303,4.9381,4.9407,4.9348,4.9576,4.9501,4.9594,4.9594,4.9643,4.964,4.9898,4.968,4.968,4.9679,4.9679,0,4.8537,4.8659,4.8699,4.8785,4.8921,4.8938,4.9073,4.9113,4.9178,4.9272,4.9263,4.9351,4.938,4.9473,4.9494,4.9631,4.9657,4.9675,4.9679,4.9675,4.9673,4.9711,4.9699,4.9686,4.9685,4.9683,4.9682,0,4.872,4.8751,4.8902,4.898,4.9002,4.9099,4.9166,4.9249,4.9279,4.9398,4.9427,4.9476,4.9585,4.9618,4.975,4.9764,4.9924,4.9917,4.9896,4.9896,4.9987,4.9977,5.0279,5.0319,5.0075,5.0078,5.008,0,4.8851,4.8944,4.9031,4.9091,4.9137,4.9236,4.9299,4.9319,4.9385,4.948,4.9552,4.9659,4.9746,4.9921,4.9969,5.0069,5.0065,5.0163,5.008,5.0072,5.0064,5.0058,5.0067,5.0179,5.0182,5.0184,5.0185,0,4.908,4.909,4.918,4.9276,4.9351,4.9428,4.9502,4.9553,4.9583,4.9658,4.9768,4.9835,4.9968,5.0074,5.0176,5.0221,5.0209,5.0211,5.0237,5.0235,5.0218,5.0226,4.9938,5.0204,5.0202,5.0201,5.02,5.0199,4.924,4.9321,4.9393,4.9494,4.9551,4.962,4.97,4.974,4.9831,4.9939,4.9946,5.0065,5.014,5.0274,5.0324,5.0418,5.0389,5.0428,5.0438,5.0447,5.0453,5.0203,5.0437,5.0436,5.0436,5.0435,5.0435,0,4.9467,4.9512,4.9604,4.9706,4.9785,4.9764,4.9844,4.9911,5.0015,5.0085,5.017,5.0295,5.0397,5.0452,5.0554,5.0618,5.0615,5.0644,5.0639,5.0649,5.0474,5.044,5.0645,5.0645,5.0645,5.0645,5.0644,5.0644,4.9595,4.9729,4.9748,4.991,4.9955,5.0069,5.0117,5.0179,5.0235,5.0374,5.0458,5.0492,5.0556,5.0662,5.0755,5.0768,5.0805,5.0838,5.0848,5.0684,5.0662,5.0642,5.061,5.0846,5.0847,5.1015,5.1017,5.1018]},{"header":{"parameterUnit":"m.s-1","parameterCategory":1,"la1":30.2991,"la2":30.254,"lo1":-89.0895,"lo2":-89.0444,"dy":0.0017,"dx":0.0017,"nx":28,"ny":28,"refTime":"2024-06-25T09:00:00:Z","depth":0,"parameterNumber":3,"parameterNumberName":"V-component_of_WINDS"},"data":[0,0,0,0,0,0,0,0,0,0,0,0,0,0,0,0,0,0,0,0,0,0,0,0,0,0,0,0,0,0,0,0,0,0,0,0,0,0,0,0,0,0,0,0,0,0,0,0,0,0,0,0,0,0,0,0,0,0,0.8957,0.8958,0,0.9019,0.902,0.9021,0.9007,0.9006,0.9005,0.9004,0.9069,0.9071,0.9074,0,0,0,0,0,0,0,0,0,0,0,0,0,0.8825,0.8828,0.8957,0.8958,0.8958,0.9019,0.902,0.9021,0.9008,0.9006,0.9005,0.9003,0.9068,0.9071,0.9074,0,0,0,0,0,0,0,0,0,0,0,0,0,0.8885,0.8829,0.8957,0.8959,0.896,0.9019,0.902,0.9021,0.9008,0.9006,0.9004,0.9003,0.9067,0.9071,0.9075,0.9136,0,0,0.9088,0.909,0,0,0,0,0,0,0,0,0.8881,0.8889,0.8958,0.8959,0.896,0.9004,0.8998,0.906,0.9008,0.899,0.9004,0.9002,0.9049,0.9054,0.907,0.9139,0.9142,0.9088,0.9091,0.9093,0.9094,0,0,0,0,0,0,0,0.8877,0.8887,0.8982,0.8959,0.896,0.8957,0.8963,0.9009,0.9028,0.8991,0.899,0.8998,0.9049,0.9066,0.9071,0.9143,0.9088,0.9092,0.9094,0.9096,0.9264,0.9266,0,0,0,0,0,0,0.8872,0.8883,0.898,0.8983,0.8915,0.8961,0.8968,0.8991,0.9028,0.9031,0.8999,0.8997,0.9059,0.9066,0.9073,0.9147,0.9093,0.9096,0.9099,0.9262,0.9265,0.9267,0,0,0,0,0,0,0.8869,0.8881,0.8977,0.8933,0.8945,0.8965,0.8991,0.8994,0.9011,0.9034,0.9037,0.9013,0.9058,0.9067,0.912,0.9149,0.9098,0.9102,0.926,0.9263,0.9266,0.9295,0,0,0,0,0,0,0.8866,0.888,0.8904,0.8934,0.8948,0.9023,0.8993,0.8996,0.9018,0.9015,0.9048,0.9051,0.9058,0.9114,0.9125,0.9154,0.9106,0.9258,0.9262,0.9265,0.9292,0.9299,0.9305,0,0,0,0,0,0.8861,0.891,0.8905,0.8917,0.8978,0.9025,0.9033,0.9039,0.902,0.9044,0.9059,0.905,0.9144,0.912,0.9131,0.9163,0.9256,0.926,0.9265,0.9289,0.9297,0.9305,0,0,0,0,0,0,0.8883,0.8914,0.8909,0.8969,0.8994,0.9023,0.9053,0.9048,0.9079,0.9076,0.9082,0.9089,0.9143,0.9158,0.913,0.9223,0.9197,0.9204,0.9212,0.922,0.9226,0.9222,0.9109,0,0,0,0,0,0.8895,0.8931,0.8956,0.9006,0.9019,0.9034,0.9055,0.9057,0.9084,0.9095,0.9113,0.9139,0.9175,0.9198,0.9232,0.9293,0.93,0.932,0.9327,0.9332,0.9338,0.9371,0.9381,0.9281,0.9281,0.9281,0,0,0.892,0.8941,0.8963,0.9011,0.9031,0.9068,0.9043,0.9083,0.9111,0.9101,0.9152,0.9166,0.9196,0.9253,0.9279,0.9267,0.9367,0.9338,0.9342,0.9345,0.9377,0.9386,0.9395,0.9284,0.9284,0.9283,0,0,0.8984,0.9004,0.9048,0.9068,0.9098,0.9108,0.9118,0.9147,0.9156,0.9207,0.92,0.9232,0.9293,0.9314,0.9333,0.9404,0.9397,0.9414,0.9449,0.9481,0.9489,0.9496,0.9521,0.953,0.942,0.942,0.942,0,0.9012,0.9067,0.9071,0.9112,0.9133,0.9125,0.9169,0.9188,0.9228,0.9243,0.9228,0.9304,0.9323,0.9385,0.9402,0.9417,0.9429,0.9411,0.9487,0.9494,0.9501,0.9525,0.9534,0.9422,0.9422,0.9422,0.9422,0,0.9099,0.9138,0.917,0.9208,0.9232,0.9275,0.9285,0.9309,0.9308,0.9319,0.937,0.9393,0.9431,0.9445,0.9446,0.9507,0.9499,0.9486,0.946,0.9512,0.9535,0.9544,0.9425,0.9424,0.9424,0.9423,0,0,0.9182,0.922,0.9232,0.9249,0.9281,0.931,0.9352,0.9388,0.9409,0.9436,0.9471,0.9522,0.9509,0.9531,0.9533,0.9561,0.9615,0.9544,0.9545,0.9557,0.9684,0.9694,0.9705,0.961,0.9612,0.9613,0.9681,0,0.9249,0.9323,0.9327,0.9393,0.9429,0.942,0.9456,0.9479,0.949,0.9521,0.9532,0.9568,0.9549,0.9562,0.9589,0.9603,0.9641,0.9598,0.9643,0.9644,0.9637,0.9717,0.9728,0.9792,0.969,0.9692,0.9693,0,0.9339,0.9368,0.9438,0.9464,0.9479,0.9511,0.9545,0.9574,0.96,0.9606,0.9629,0.9626,0.9668,0.964,0.9698,0.9669,0.9687,0.9696,0.9699,0.9704,0.9673,0.9725,0.9812,0.9822,0.9707,0.9706,0.9705,0,0.9392,0.9449,0.9498,0.9512,0.9544,0.9567,0.9581,0.9605,0.9626,0.9655,0.9669,0.9702,0.9721,0.9746,0.9753,0.9732,0.9811,0.9783,0.9816,0.9816,0.9835,0.9834,0.9927,0.9845,0.9845,0.9845,0.9845,0,0.9468,0.9511,0.9522,0.9553,0.96,0.9604,0.9651,0.9664,0.9685,0.9717,0.9711,0.9742,0.9748,0.978,0.9785,0.9832,0.984,0.9846,0.9847,0.9847,0.9846,0.986,0.9856,0.9847,0.9847,0.9846,0.9846,0,0.9536,0.9545,0.9598,0.9623,0.963,0.9664,0.9686,0.9714,0.9723,0.9764,0.9774,0.9788,0.9825,0.9833,0.9877,0.988,0.9936,0.9933,0.9928,0.9928,0.9961,0.9958,1.0067,1.0081,0.9989,0.999,0.9991,0,0.9585,0.9618,0.9646,0.9667,0.9682,0.9716,0.9737,0.9741,0.9764,0.9795,0.982,0.9855,0.9885,0.9943,0.9957,0.9991,0.9988,1.0024,0.9993,0.9992,0.9989,0.9987,0.9991,1.003,1.0031,1.0032,1.0033,0,0.967,0.9672,0.9703,0.9736,0.9761,0.9787,0.9812,0.9829,0.9837,0.9862,0.9899,0.9922,0.9965,1.0001,1.0034,1.0048,1.0042,1.0042,1.0051,1.0052,1.0048,1.0051,0.9944,1.004,1.0039,1.0038,1.0038,1.0038,0.973,0.9758,0.9782,0.9817,0.9835,0.9858,0.9886,0.9898,0.9929,0.9965,0.9966,1.0006,1.003,1.0073,1.0089,1.012,1.0109,1.0123,1.0127,1.0131,1.0134,1.0042,1.0126,1.0126,1.0126,1.0126,1.0126,0,0.9815,0.9829,0.9861,0.9895,0.9922,0.9913,0.9939,0.9962,0.9998,1.002,1.0048,1.0091,1.0125,1.0141,1.0174,1.0196,1.0194,1.0205,1.0204,1.0207,1.0141,1.013,1.0206,1.0206,1.0206,1.0206,1.0206,1.0206,0.9862,0.991,0.9915,0.9972,0.9986,1.0025,1.0041,1.0062,1.008,1.0127,1.0155,1.0165,1.0185,1.0219,1.025,1.0253,1.0266,1.0279,1.0281,1.022,1.0212,1.0204,1.0193,1.0281,1.0281,1.0344,1.0345,1.0345]}]]